Location: Hiram
(41.3130°N, 81.1440°W)
Time: 10:29:25
(UTC-04:00)

Daily predictions for brighter satellites

Satellite Brightness Start Highest point End
(mag) Time Altitude Azimuth Time Altitude Azimuth Time Altitude Azimuth
Cosmos 1151 Rocket 3.1 21:31:23 10° N 21:35:39 60° E 21:39:56 10° SSE
Cosmos 1437 3.3 21:33:30 10° SSE 21:36:35 39° E 21:39:41 10° NNE
H-2A R/B 4.3 21:34:46 10° SSW 21:38:19 36° W 21:41:50 10° NNW
ATLAS 2AS CENTAUR R/B 4.4 21:34:59 10° SE 21:38:43 14° ESE 21:42:33 10° ENE
COSMOS 2428 3.3 21:38:43 10° NNW 21:44:08 44° ENE 21:49:33 10° SE
Cosmos 1437 Rocket 3.1 21:40:52 10° NNW 21:44:39 66° W 21:48:29 10° S
USA 186 3.9 21:43:19 10° SW 21:44:45 15° W 21:46:12 10° NW
ARGOS 4.4 21:41:18 10° ESE 21:45:40 26° ENE 21:50:02 10° N
ERS-1 Rocket 3.2 21:41:49 10° S 21:46:50 74° WSW 21:51:54 10° NNW
Cosmos 2219 Rocket 3.6 21:43:28 10° N 21:48:03 25° NE 21:52:37 10° ESE
Envisat 3.1 21:43:29 10° SSE 21:48:31 69° ENE 21:53:34 10° N
Cosmos 2266 Rocket 4.0 21:43:04 10° S 21:49:21 82° E 21:55:33 10° N
Cosmos 1939 Rocket 2.8 21:45:44 10° SSE 21:49:39 85° ENE 21:53:34 10° N
Cosmos 1805 Rocket 4.2 21:46:49 10° SSE 21:50:55 38° E 21:55:02 10° NNE
ERBS 4.3 21:49:50 11° SE 21:50:55 12° ESE 21:52:15 10° E
Terra 4.0 21:49:57 10° ENE 21:51:23 11° ENE 21:52:48 10° NE
Cosmos 2315 Rocket 4.1 21:52:40 10° N 21:58:51 63° E 22:04:58 10° SSE
Cosmos 1726 3.2 21:57:45 10° NNE 22:01:07 30° ENE 22:03:46 14° SE
NOSS 3-1 (C) 3.4 21:55:51 10° SSW 22:01:34 61° ESE 22:07:53 10° NE
SL-23 DEB 4.0 21:56:36 10° NW 22:02:05 85° SW 22:05:00 15° SE
Cosmos 2112 Rocket 4.0 21:58:01 10° NNW 22:03:18 89° WSW 22:08:34 10° SSE
OTV 4 2.3 22:02:38 10° S 22:04:07 14° SSE 22:04:07 14° SSE
OAO 2 Rocket 4.2 21:59:41 10° SW 22:04:20 31° SSE 22:08:59 10° ESE
CZ-4 SHROUD 3.2 22:02:06 13° SSE 22:04:51 64° ENE 22:07:58 10° N
Cosmos 2237 4.3 22:00:03 10° NNW 22:05:47 69° ENE 22:10:48 14° SSE
Cosmos 1937 Rocket 4.3 22:02:50 10° SSE 22:07:21 30° E 22:11:51 10° NE
H-2A R/B 2.7 22:03:26 10° S 22:07:54 59° WSW 22:12:23 10° NNW
Cosmos 1707 Rocket 3.8 22:05:25 10° N 22:09:42 53° E 22:13:15 14° SSE
Cosmos 1666 Rocket 3.8 22:09:25 10° SSE 22:13:36 49° E 22:17:53 10° NNE
Cosmos 2298 Rocket 4.1 22:08:31 10° S 22:13:43 58° ESE 22:18:56 10° NNE
Cosmos 1328 3.9 22:11:01 10° SSW 22:14:57 75° W 22:18:56 10° N
Tiangong 1 1.0 22:12:27 10° WSW 22:15:30 58° SSE 22:18:33 10° E
Cosmos 2219 3.3 22:09:52 10° SSW 22:15:37 86° WNW 22:21:25 10° NNE
CZ-4 R/B 4.5 22:13:59 10° NNE 22:18:33 38° E 22:22:06 15° SSE
Meteor 1-4 Rocket 3.5 22:15:44 10° N 22:19:11 34° ENE 22:21:09 20° SE
Cosmos 2237 Rocket 3.4 22:16:13 10° N 22:21:13 30° NE 22:25:15 14° ESE
Cosmos 2333 4.3 22:17:30 10° NNW 22:23:14 71° ENE 22:27:36 18° SSE
DELTA 2 R/B (1) 4.4 22:20:18 10° W 22:25:17 35° SSW 22:28:40 18° SSE
Cosmos 1271 Rocket 3.4 22:22:53 10° N 22:26:31 39° ENE 22:28:33 22° SE
MetOp-B 4.2 22:23:58 13° SSE 22:28:51 82° WSW 22:34:15 10° NNW
CZ-4B R/B 3.5 22:25:26 10° NNE 22:30:43 71° ESE 22:35:52 10° S
Cosmos 2360 Rocket 3.4 22:26:39 10° NW 22:31:49 37° WSW 22:36:57 10° S
Cosmos 1745 Rocket 4.4 22:27:24 16° SSE 22:32:04 45° E 22:37:54 10° NNE
NOSS 0 Rocket 4.3 22:27:11 10° NNW 22:33:11 51° ENE 22:37:22 20° SE
Cosmos 1703 3.7 22:32:27 23° SSE 22:34:30 43° E 22:38:13 10° NNE
Iridium 2 4.4 22:33:22 24° SE 22:34:59 36° E 22:38:32 10° NNE
SL-14 R/B 3.2 22:31:36 13° S 22:35:09 86° E 22:39:11 10° N
NOAA 11 4.3 22:32:40 19° SSE 22:36:35 67° ENE 22:42:00 10° N
Meteor 1-27 4.3 22:32:59 10° NNW 22:38:41 81° W 22:43:18 16° S
H-2A R/B 2.9 22:36:57 20° SE 22:40:08 39° ENE 22:45:10 10° N
Cosmos 1626 3.3 22:41:26 24° ESE 22:42:11 26° E 22:45:21 10° NNE
SPOT 5 3.9 22:41:59 10° SSW 22:46:17 40° W 22:50:51 10° NNW
Delta 2 Rocket 3.8 22:45:24 10° WSW 22:48:31 28° S 22:48:40 28° S
Cosmos 1898 Rocket 3.6 22:46:39 10° SSW 22:51:49 75° WNW 22:57:03 10° NNE
YAOGAN 6 3.5 22:50:10 18° SSW 22:52:31 44° W 22:55:59 10° NNW
SPOT 1/Viking Rocket 3.7 22:48:49 19° S 22:52:32 70° WSW 22:57:42 10° NNW
MINOTAUR R/B 4.5 22:50:22 10° NNW 22:53:28 76° ENE 22:54:10 49° SE
Lacrosse 4 Rocket 3.5 22:52:53 10° N 22:56:11 20° NE 22:58:32 14° E
Cosmos 2227 Rocket 2.2 22:55:43 18° S 22:59:55 58° ESE 23:05:28 10° NNE
Cosmos 1300 4.1 22:57:39 10° NNW 23:01:08 33° W 23:03:49 15° SSW
NOSS 3-1 (A) 3.8 23:00:17 10° SW 23:06:08 65° NW 23:12:41 10° NNE
Cosmos 292 Rocket 3.9 23:01:36 10° NNW 23:06:19 66° WSW 23:08:40 29° S
Cosmos 2242 Rocket 4.0 23:02:24 10° NNW 23:06:50 62° W 23:09:20 25° SSW
Sich 1 4.0 23:03:04 10° SSW 23:07:14 47° W 23:11:30 10° N
Cosmos 1862 Rocket 3.6 23:04:20 10° N 23:08:38 61° E 23:10:03 39° SE
CARTOSAT-1 3.6 23:08:07 37° SE 23:09:39 64° ENE 23:13:56 10° N
COSMOS 2455 3.7 23:05:04 10° NNW 23:10:44 40° NE 23:14:03 22° ESE
Cosmos 1633 Rocket 4.1 23:08:22 11° SSW 23:12:20 44° WNW 23:16:32 10° N
Landsat 7 3.8 23:10:19 32° S 23:12:32 86° W 23:17:19 10° NNW
USA 245 4.4 23:15:04 17° WSW 23:15:23 18° W 23:17:06 10° NW
SL-16 R/B 3.2 23:10:16 10° N 23:15:30 36° ENE 23:18:12 24° ESE
SAR-Lupe-2 3.8 23:15:11 48° ESE 23:15:44 54° ENE 23:19:15 10° N
Cosmos 1933 4.5 23:13:02 10° NNE 23:16:37 29° ENE 23:17:12 28° E
Cosmos 2333 Rocket 2.2 23:10:55 10° NNW 23:16:43 89° WSW 23:19:24 34° SSE
Cosmos 1346 3.1 23:20:05 68° WSW 23:20:19 73° W 23:23:21 10° N
FALCON 9 R/B 3.9 22:56:12 10° W 23:22:25 62° S 23:27:17 24° ESE
Cosmos 1455 2.1 23:19:51 10° N 23:23:41 87° W 23:24:28 55° S
BREEZE-M DEB (TANK) 2.9 23:22:44 10° NW 23:24:46 45° NNE 23:25:19 39° ENE
ARGOS 4.0 23:22:16 20° SSW 23:25:39 43° W 23:30:46 10° NNW
Cosmos 2297 Rocket 2.1 23:23:49 29° S 23:26:44 68° ESE 23:32:21 10° NNE
ERBS 2.7 23:23:51 10° SW 23:27:19 64° NW 23:30:47 10° NE
COSMOS 2428 4.3 23:23:28 10° NW 23:28:08 27° WSW 23:31:38 15° SSW
ATLAS 2AS CENTAUR R/B 2.9 23:20:53 10° SSW 23:28:19 76° ESE 23:36:22 10° NE
Terra 1.7 23:26:42 41° S 23:28:24 86° WSW 23:33:11 10° NNW
DMSP B5D2-2 4.0 23:26:25 10° NNE 23:31:41 86° ESE 23:34:06 33° SSW
Cosmos 2219 Rocket 2.7 23:26:53 10° NW 23:32:16 50° WSW 23:34:43 30° SSW
Spot 4 3.8 23:34:28 45° SSE 23:35:59 88° ENE 23:40:52 10° NNW
Cosmos 1869 Rocket 4.2 23:36:29 37° E 23:36:45 38° E 23:40:54 10° NNE
IGS 5A 3.5 23:36:25 51° S 23:37:22 73° WSW 23:41:33 10° NNW
Cosmos 468 4.5 23:36:32 10° NNW 23:41:54 84° ENE 23:43:31 46° SSE
ATLAS 3B R/B 2.8 23:35:10 10° NNW 23:42:12 68° NE 23:45:16 34° SE
Cosmos 1900 4.4 23:40:08 10° NNW 23:45:06 70° ENE 23:46:21 48° ESE
OAO 2 Rocket 3.9 23:43:39 10° WSW 23:48:05 41° SSW 23:48:05 41° SSW
COS B Rocket 3.7 23:45:50 10° NNE 23:49:36 49° E 23:49:36 49° E
Cosmos 1869 3.8 23:45:55 10° NNW 23:49:51 52° W 23:50:34 45° SW
Tiangong 1 2.4 23:49:02 10° W 23:51:01 35° WNW 23:51:01 35° WNW
Cosmos 1980 4.3 23:47:44 10° NW 23:53:07 47° WSW 23:55:01 34° SSW
ALOS 2 4.4 23:52:44 19° E 23:53:32 20° ENE 23:56:42 10° NNE
